Terminal Aerodrome Forecast
Issued by NWS

Home | Current Version | Previous Version | Text Only | Print | Product List | Glossary On
Versions: 1 2 3 4 5 6 7 8 9 10 11 12 13 14 15 16 17 18 19 20 21 22 23 24 25 26 27 28 29 30 31 32 33 34 35 36 37 38 39 40 41 42 43
000
FTPA31 PHFO 221100
TAFLIH
TAF
PHLI 221138Z 2212/2312 30005KT P6SM SCT013 SCT035
      TEMPO 2212/2214 BKN013
     FM222000 05010KT P6SM SCT022 BKN040
     FM230600 06012KT P6SM VCSH SCT022 BKN040=

USA.gov is the U.S. government's official web portal to all federal, state and local government web resources and services.